DW1065 Weather Reports


time (UTC)temp
C
wind
direction
speed
KPH
gust
KPH
rain 1hr
cm
rain 24hr
cm
rain mn
cm
humidity
%
barometer
mb
20260507233504 3 130 1.6 3.2 0.00 1.68 0.00 72 1015.8
20260507232506 3 130 1.6 3.2 0.00 2.29 0.00 71 1015.8
20260507232005 3 130 1.6 3.2 0.00 2.59 0.00 71 1015.8
20260507231504 3 128 1.6 3.2 0.00 2.90 0.00 70 1015.8
20260507231006 3 128 1.6 3.2 0.00 3.15 0.00 70 1015.8
20260507230005 3 130 0.0 0.0 0.00 3.76 0.00 68 1015.7
20260507225505 3 128 0.0 0.0 0.00 4.06 0.00 67 1015.7
20260507225005 3 129 0.0 0.0 0.00 4.37 0.00 67 1015.7
20260507224505 3 129 0.0 1.6 0.00 4.67 0.00 67 1015.6
20260507224004 3 130 0.0 3.2 0.00 4.98 0.00 66 1015.6
20260507223504 3 129 1.6 3.2 0.00 5.23 0.00 66 1015.6
20260507223005 3 129 1.6 3.2 0.00 5.54 0.00 65 1015.6
20260507222504 4 129 1.6 3.2 0.00 5.84 0.00 65 1015.6
20260507222004 4 131 1.6 4.8 0.00 6.15 0.00 64 1015.5
20260507221505 4 129 3.2 4.8 0.00 6.45 0.00 63 1015.5
20260507221006 4 178 1.6 3.2 0.00 6.76 0.00 62 1015.5
20260507220504 4 177 1.6 3.2 0.00 7.06 0.00 62 1015.4
20260507220005 5 178 1.6 3.2 0.00 7.32 0.00 62 1015.4
20260507215506 5 180 1.6 3.2 0.00 7.62 0.00 62 1015.4
20260507215005 5 180 1.6 3.2 0.00 7.92 0.00 61 1015.3
20260507214504 5 178 1.6 3.2 0.00 8.23 0.00 60 1015.3
20260507214004 5 179 1.6 4.8 0.00 8.53 0.00 60 1015.2
20260507213505 5 179 1.6 4.8 0.00 8.84 0.00 58 1015.1
20260507213005 5 222 0.0 3.2 0.00 9.09 0.00 57 1015.1
20260507212505 5 222 0.0 3.2 0.00 9.40 0.00 57 1015.1
20260507210504 6 222 0.0 3.2 0.00 10.62 0.00 55 1014.8
20260507210005 6 221 1.6 3.2 0.00 10.92 0.00 55 1014.8
20260507205505 6 225 0.0 3.2 0.00 11.18 0.00 54 1014.8
20260507205005 6 222 0.0 1.6 0.00 11.48 0.00 53 1014.8
20260507204506 7 224 0.0 1.6 0.00 11.79 0.00 52 1014.8
20260507204005 7 222 0.0 1.6 0.00 12.09 0.00 50 1014.8
20260507203505 7 223 0.0 1.6 0.00 12.40 0.00 50 1014.9
20260507202506 7 224 0.0 0.0 0.00 13.00 0.00 49 1014.9
20260507202005 7 222 0.0 0.0 0.00 13.26 0.00 49 1014.8
20260507201504 8 223 0.0 0.0 0.00 13.56 0.00 47 1014.8
20260507201005 8 225 0.0 0.0 0.00 13.87 0.00 47 1014.8
20260507200504 8 223 0.0 0.0 0.00 14.17 0.00 46 1014.7
20260507200005 8 224 0.0 0.0 0.00 14.48 0.00 45 1014.4
20260507194504 9 222 0.0 0.0 0.00 15.34 0.00 43 1014.5
20260507194005 10 223 0.0 0.0 0.00 15.65 0.00 42 1014.3
20260507193505 10 224 0.0 0.0 0.00 15.95 0.00 42 1014.2
20260507193005 10 223 0.0 0.0 0.00 16.26 0.00 42 1014.2
20260507192505 10 225 0.0 3.2 0.00 16.56 0.00 40 1014.0
20260507192004 10 223 1.6 3.2 0.00 16.87 0.00 41 1013.9
20260507191505 10 222 0.0 3.2 0.00 17.17 0.00 39 1013.9
20260507191006 11 222 0.0 3.2 0.00 17.42 0.00 38 1013.8
20260507190505 11 214 0.0 4.8 0.00 17.73 0.00 38 1013.7
20260507190005 11 219 1.6 4.8 0.00 18.03 0.00 38 1013.7
20260507185504 11 216 1.6 4.8 0.00 18.34 0.00 36 1013.6
20260507185005 11 205 0.0 4.8 0.00 18.64 0.00 34 1013.6
20260507184504 12 204 1.6 4.8 0.00 18.95 0.00 34 1013.5
20260507184006 12 194 0.0 0.0 0.00 19.20 0.00 33 1013.4
20260507183504 12 194 0.0 0.0 0.00 19.51 0.00 31 1013.4
20260507183006 12 192 0.0 0.0 0.00 19.86 0.00 30 1013.5
20260507182506 12 192 0.0 3.2 0.00 20.12 0.00 28 1013.4
20260507182005 12 193 0.0 3.2 0.00 20.42 0.00 27 1013.4
20260507181005 13 198 0.0 4.8 0.00 21.03 0.00 27 1013.4
20260507180504 13 203 3.2 4.8 0.00 21.29 0.00 26 1013.4
20260507180005 13 205 0.0 4.8 0.00 21.59 0.00 27 1013.3
20260507175504 13 265 1.6 4.8 0.00 21.89 0.00 26 1013.2
20260507175006 13 289 0.0 3.2 0.00 22.20 0.00 26 1013.2
20260507174505 13 283 0.0 3.2 0.00 22.50 0.00 27 1013.2
20260507174005 13 289 0.0 4.8 0.00 22.81 0.00 27 1013.2
20260507173507 13 289 0.0 4.8 0.00 23.11 0.00 25 1013.2